Theta_e
290 291 290 289 289 289 289 289 289 290 290 291 292 293 293 293 293 292 291 292 291 292 294 295 295 297 296 296 296 296 296 296 295 299 302 306 306 307 307 303 303 302 301
288 289 288 287 287 286 286 287 287 287 288 289 290 290 291 291 290 288 288 288 288 290 291 291 291 291 289 290 290 290 292 293 292 290 296 299 300 299 298 299 298 299 298
287 287 286 285 284 284 284 285 285 285 286 287 288 288 288 289 287 286 286 286 286 288 289 289 289 287 285 286 287 287 287 289 290 289 290 293 295 290 289 293 293 293 293
285 285 283 283 282 282 283 283 283 284 284 285 287 287 286 286 285 285 285 284 284 287 287 287 286 285 284 284 286 285 285 284 285 285 287 287 289 287 286 287 286 288 289
283 282 281 282 281 281 281 281 282 282 283 284 285 285 284 285 285 284 284 283 284 285 285 285 284 285 284 283 284 285 284 282 282 282 283 282 284 283 283 284 284 286 286
282 281 281 280 280 280 280 280 280 280 281 283 283 283 282 283 286 285 284 282 283 284 283 283 282 283 282 283 284 286 286 282 281 280 281 279 280 280 281 283 283 282 281
280 280 279 278 278 278 279 279 279 279 279 280 281 281 280 281 284 284 283 281 281 281 282 282 281 281 281 281 281 283 284 283 283 281 279 279 277 278 278 279 280 279 280
278 277 277 277 277 277 278 277 277 278 278 278 278 279 279 280 283 283 283 280 280 280 281 281 280 279 280 281 279 279 279 278 279 281 281 280 279 279 278 278 277 279 281
276 275 276 276 276 277 277 276 277 277 278 278 278 278 278 278 282 282 282 279 278 278 279 280 279 279 281 282 278 276 277 277 280 281 281 281 280 280 279 275 273 272 273
275 275 276 276 276 275 276 276 276 277 278 278 279 278 278 278 280 281 281 279 277 278 277 278 279 278 281 281 278 276 275 276 277 277 278 277 277 276 277 275 274 270 270
275 275 275 275 274 275 274 274 275 275 276 275 277 277 277 278 278 281 281 279 278 277 276 276 276 278 279 280 279 276 276 276 274 273 273 273 273 273 273 274 274 273 270
273 273 272 272 272 273 269 271 271 272 272 272 272 274 276 277 278 279 280 280 280 276 275 275 275 278 278 278 276 277 276 274 270 268 269 270 270 271 272 273 273 273 273
270 269 269 269 271 271 268 269 269 269 270 271 272 272 273 276 275 278 278 279 279 276 275 276 276 276 276 274 275 275 271 269 268 263 267 268 270 271 271 270 271 270 270
264 267 269 268 268 269 271 271 268 268 268 270 270 269 270 272 272 273 275 276 277 275 275 271 273 274 273 273 270 270 269 269 268 267 267 268 269 269 268 269 267 268 266
266 268 269 269 266 268 270 268 270 271 270 270 270 271 270 269 271 276 276 275 275 276 272 265 264 264 265 264 264 264 266 267 264 265 265 265 266 266 266 267 266 264 259
265 267 266 267 266 268 267 267 272 274 274 275 275 274 273 275 275 276 276 277 277 276 263 258 261 262 263 263 262 264 263 264 264 264 263 264 264 264 264 264 262 258 261
262 264 264 265 265 264 264 264 264 267 271 272 273 274 274 274 275 275 275 276 274 271 257 257 260 262 263 263 263 263 262 263 263 262 261 262 262 261 260 261 262 261 260
257 261 261 262 262 261 262 261 262 262 263 263 268 270 272 273 273 273 274 270 259 260 257 261 259 260 262 262 262 261 262 260 259 259 258 259 258 256 259 259 260 258 260
259 260 260 259 259 260 259 259 260 259 261 262 262 265 265 269 270 271 271 258 259 259 257 258 258 259 261 260 261 260 259 259 259 259 254 256 256 252 259 259 259 259 259
258 260 259 256 256 256 257 257 255 256 258 258 260 259 258 257 257 254 254 254 255 258 258 258 258 257 257 258 260 259 259 259 257 256 257 256 256 254 257 258 258 258 259
257 257 258 254 254 254 253 253 256 254 257 258 259 258 268 265 257 256 257 256 256 257 257 257 259 255 256 256 256 258 258 258 258 257 257 257 255 255 257 257 257 258 258
257 256 255 254 255 254 253 252 252 254 256 256 258 257 266 259 256 257 256 256 256 256 256 257 258 258 257 256 257 256 256 256 256 256 256 256 256 256 256 256 257 258 258
258 256 255 254 253 253 251 250 252 254 255 255 254 257 256 254 254 254 255 255 255 255 255 252 255 257 256 253 253 255 256 256 257 256 255 255 255 255 255 255 256 256 257
255 255 255 255 252 251 249 252 252 253 255 254 253 254 254 255 254 254 254 255 254 254 253 253 253 255 255 255 254 254 255 256 256 256 253 254 255 255 254 255 255 256 257
255 255 254 254 252 251 250 250 252 251 252 252 253 252 252 253 254 254 254 254 255 254 255 253 253 254 253 253 253 254 254 256 255 256 255 253 253 253 254 254 255 256 256
255 254 254 252 250 249 250 251 251 251 252 252 252 252 252 254 255 253 253 254 254 254 253 254 254 252 252 254 255 256 259 261 260 260 258 256 255 256 256 257 258 260 262
Wind_Speed
8 7 7 8 9 8 8 9 10 10 12 12 12 12 13 13 12 12 13 13 13 12 11 12 13 12 9 10 10 10 10 9 11 15 11 12 14 11 11 6 8 7 6
8 7 8 9 9 10 9 10 10 10 10 11 11 11 11 12 11 13 14 14 15 14 13 13 12 9 10 9 8 11 9 9 11 16 15 10 11 5 8 9 7 6 6
7 7 8 9 10 10 10 10 10 11 11 11 10 11 12 12 11 13 14 15 15 13 13 13 13 10 11 12 10 9 8 8 8 10 13 9 7 4 7 4 5 4 4
7 7 7 8 9 10 10 11 11 10 10 11 10 10 10 11 11 15 15 16 15 11 11 12 12 9 12 14 12 11 10 9 8 6 8 9 6 7 5 7 6 3 5
6 6 7 7 8 8 9 9 10 10 10 10 10 9 10 10 9 16 16 16 13 11 10 11 13 11 17 19 12 12 11 10 8 8 8 7 7 9 10 8 6 6 2
5 5 6 7 7 8 9 9 9 10 10 10 9 9 9 8 18 22 20 14 15 13 11 10 12 13 16 22 22 21 9 8 10 8 6 8 8 9 8 8 6 6 4
5 6 6 7 8 8 8 8 9 9 9 9 9 9 8 8 18 21 22 10 12 12 11 9 9 10 13 13 19 18 10 15 15 9 9 7 8 10 10 9 8 6 4
5 5 5 5 5 6 6 6 6 7 7 7 8 8 7 7 17 18 20 11 11 11 11 9 9 11 13 14 13 12 10 9 9 8 8 8 8 8 9 8 8 8 5
3 4 4 4 6 6 6 7 7 7 7 7 7 7 7 6 16 17 14 8 9 11 11 9 9 9 18 22 11 14 13 11 11 14 13 14 15 17 15 7 8 7 3
4 5 4 5 6 7 7 7 7 6 8 7 9 6 8 6 12 16 14 6 8 8 9 9 14 14 21 19 9 11 12 11 10 9 6 8 10 10 16 9 7 6 5
4 5 4 4 5 5 6 6 7 8 8 8 9 6 7 5 6 18 17 7 7 7 8 8 8 20 19 17 15 9 11 11 11 7 6 5 5 6 6 7 9 7 6
4 5 5 5 5 4 5 5 6 6 6 7 6 6 5 5 11 14 18 18 16 8 8 7 10 21 19 16 11 16 15 12 6 4 5 6 6 6 7 6 7 6 5
4 5 4 5 5 4 4 6 5 4 5 7 7 7 8 6 6 16 17 20 16 10 7 13 20 18 16 9 13 14 9 5 5 3 5 5 6 6 7 5 5 6 6
4 5 4 4 5 4 3 4 3 4 4 6 7 7 8 7 7 8 7 7 8 6 9 6 12 13 13 10 6 7 5 5 5 5 6 6 5 5 5 5 6 6 5
3 4 5 3 3 5 4 3 5 5 5 7 6 7 8 7 8 18 15 10 8 10 7 3 3 3 4 4 4 4 4 4 3 5 6 6 6 6 5 5 5 4 2
3 3 2 3 3 4 4 5 9 14 16 18 19 14 7 16 22 21 21 21 20 20 4 3 4 4 4 5 5 6 3 5 4 6 5 5 7 7 7 7 3 2 5
5 4 3 3 4 3 3 5 9 8 15 16 18 18 18 19 19 20 21 20 16 14 2 3 4 5 6 6 6 6 7 6 7 6 6 6 7 7 6 7 7 5 7
4 6 4 4 3 3 3 3 5 7 9 7 10 17 17 18 19 21 19 10 6 5 2 5 5 4 6 6 6 6 7 6 4 6 5 6 5 4 7 7 7 6 7
3 3 3 2 2 4 3 4 4 4 6 8 6 10 9 18 20 17 17 2 4 5 4 4 4 4 6 5 6 7 6 7 7 7 4 5 5 3 8 6 7 9 9
4 7 4 3 3 3 4 4 3 4 4 5 7 7 5 5 4 3 3 3 4 4 4 5 5 4 4 5 7 7 7 7 6 5 6 5 5 4 7 8 8 8 9
3 2 4 2 3 3 3 3 4 3 5 6 7 6 19 10 4 6 6 4 5 5 5 4 6 4 4 5 5 7 8 8 8 7 7 7 5 7 7 7 8 9 9
2 3 2 3 3 3 4 3 3 5 6 6 8 6 18 5 5 6 6 5 5 5 4 5 7 6 6 5 7 7 8 9 8 7 7 8 6 7 7 8 9 9 9
4 3 3 3 3 4 3 3 4 5 5 5 5 7 6 4 5 5 6 6 5 6 5 4 5 8 6 5 5 7 9 10 9 7 8 9 8 8 7 9 9 10 9
2 3 3 3 3 3 3 4 5 5 7 6 5 5 5 6 6 6 6 6 5 5 5 5 5 9 9 9 6 6 8 9 8 9 8 8 10 10 8 9 10 12 12
3 4 4 4 4 3 4 4 5 5 5 5 5 5 5 5 6 7 7 6 7 7 8 6 6 9 10 11 12 14 14 17 13 12 8 8 12 14 12 11 12 12 14
4 4 4 3 3 3 4 5 5 4 5 5 5 5 6 8 8 6 7 8 8 8 9 8 9 11 13 12 13 15 16 17 15 15 10 9 10 10 10 12 17 12 15
Wind_Direction
16 6 17 15 7 7 8 2 357 350 351 351 350 348 348 353 352 359 348 342 335 331 332 334 332 331 351 342 337 328 318 313 303 305 307 319 319 321 320 323 314 309 311
5 10 20 14 6 7 2 360 355 351 349 348 348 348 350 350 8 2 348 340 335 335 339 339 338 357 352 344 340 323 320 324 323 306 308 320 319 357 326 338 334 334 321
359 6 15 11 5 1 356 354 352 349 348 350 352 354 350 348 14 1 346 339 330 335 340 344 341 356 353 343 337 340 328 330 323 316 312 324 326 360 333 327 345 345 5
359 8 12 5 1 356 351 351 349 349 347 348 350 355 353 344 16 354 347 337 329 333 344 348 343 358 360 348 335 336 339 337 330 328 325 330 332 336 324 342 346 1 359
2 10 6 357 353 349 350 346 347 349 350 345 348 358 357 348 4 351 348 339 322 331 344 352 346 345 0 347 336 333 340 346 347 343 340 332 350 356 351 337 320 324 14
2 9 360 356 348 352 348 347 351 349 349 344 350 356 356 349 348 350 351 337 341 344 344 347 345 347 348 344 342 337 3 4 359 347 345 351 350 355 341 341 335 344 325
4 7 7 356 348 347 340 348 348 349 339 341 346 347 348 344 350 349 350 343 342 341 342 344 346 345 339 343 345 346 15 14 7 352 346 14 5 1 345 338 339 330 322
17 2 355 341 334 335 332 338 329 334 333 333 333 337 334 338 345 350 354 349 342 340 336 340 347 344 334 345 344 344 353 8 357 356 351 14 16 359 1 344 339 316 292
3 340 337 333 329 328 332 332 328 329 328 329 324 323 328 328 341 344 352 343 341 340 332 333 338 334 338 344 351 345 343 350 346 356 7 14 14 8 15 353 6 3 330
348 334 326 336 333 329 330 329 318 314 317 323 316 320 313 306 336 333 340 338 331 332 332 330 339 334 341 345 356 340 338 345 334 348 4 17 17 7 9 13 357 3 343
336 328 330 332 323 306 327 322 317 316 310 308 306 296 296 302 321 330 334 340 329 336 329 330 329 325 333 337 354 331 340 349 339 340 342 359 3 4 359 2 2 1 348
341 322 315 306 312 314 306 298 301 302 305 305 306 312 312 312 328 327 330 332 335 335 329 328 321 322 330 336 344 344 352 351 330 334 343 355 356 353 348 345 347 336 322
326 305 299 303 302 299 301 304 309 312 312 313 317 321 319 323 329 321 329 324 333 333 321 325 329 323 334 341 344 351 352 336 330 342 342 342 341 332 331 321 326 310 308
294 294 292 289 295 289 297 295 307 303 303 308 311 310 307 313 319 318 306 312 299 317 320 331 328 331 339 346 345 345 332 338 339 342 328 322 320 328 328 336 331 329 323
279 289 279 276 297 295 287 282 295 280 280 297 300 294 303 311 305 309 321 318 317 321 345 347 326 320 330 326 323 319 325 327 333 338 324 324 329 328 321 327 316 317 316
279 277 290 293 292 290 293 299 300 309 314 315 313 311 302 307 313 318 319 319 323 328 32 346 315 320 322 318 321 323 313 325 324 326 314 320 320 319 317 316 298 309 303
241 270 279 294 289 292 304 309 313 314 311 315 319 321 319 309 320 321 319 319 347 340 355 301 299 312 313 315 312 314 315 317 316 314 311 318 314 309 308 309 308 306 306
243 260 253 251 264 288 291 294 300 300 314 316 314 318 321 325 324 320 315 1 345 335 305 303 301 298 311 310 311 309 309 303 302 299 298 298 290 280 302 303 303 299 303
241 251 259 289 290 284 281 272 270 287 294 300 311 312 315 321 320 318 338 343 297 303 290 293 279 291 298 294 300 301 292 295 296 294 277 278 284 279 300 292 295 296 291
242 242 233 237 260 277 277 281 297 288 288 292 299 295 307 311 297 307 294 293 291 279 283 286 286 282 288 290 300 299 299 299 290 282 290 286 285 273 289 295 295 296 293
232 246 249 253 254 263 268 275 276 288 292 290 289 284 307 319 329 313 301 290 282 284 279 273 292 279 276 280 287 294 295 294 293 289 294 294 285 286 286 280 283 281 280
209 228 242 247 258 269 263 260 276 277 272 277 290 292 312 315 289 288 287 285 280 273 273 280 291 288 282 272 290 289 289 287 287 286 287 291 286 289 287 284 284 282 282
214 217 246 261 247 268 285 271 270 268 274 276 282 292 293 277 275 276 279 280 280 284 278 274 282 291 284 262 255 264 278 281 283 283 283 288 289 286 284 282 282 282 280
202 217 232 249 254 257 256 270 268 274 279 277 279 278 281 284 283 282 281 285 284 282 278 276 270 278 287 287 277 262 264 270 273 275 261 272 280 284 278 276 275 275 275
214 219 224 235 245 255 273 270 272 273 274 277 285 281 282 286 289 288 287 287 289 289 294 284 277 277 278 276 275 276 273 278 272 270 270 258 262 268 267 269 272 275 273
217 222 227 229 246 253 256 266 268 273 279 284 280 283 287 293 293 286 292 296 297 299 293 291 286 277 278 282 280 279 283 286 285 275 255 248 255 263 262 263 268 268 273